This is the latest recevied weather packets stored in our database for station/object SQ7IQO. If no packets are shown the sender has not sent any weather packets the latest 10 day(s).
| Time | Temp. | Humidity | Pressure | Rain* | Wind** | Luminosity | Snow |
|---|---|---|---|---|---|---|---|
| 1787818360 | 22.78° C | 53% | 1024.7 hPa | 0 mm | 0 m/s | - | - |
| 1787818299 | 23.33° C | 50% | 1024.7 hPa | 0 mm | 0 m/s | - | - |
| 1787818239 | 23.89° C | 50% | 1024.7 hPa | 0 mm | 0.45 m/s, ° | - | - |
| 1787818179 | 24.44° C | 50% | 1024.7 hPa | 0 mm | 0 m/s | - | - |
| 1787818119 | 23.89° C | 51% | 1024.7 hPa | 0 mm | 0 m/s | - | - |
| 1787818060 | 23.33° C | 51% | 1024.7 hPa | 0 mm | 0 m/s | - | - |
| 1787818000 | 23.33° C | 53% | 1024.7 hPa | 0 mm | 0 m/s | - | - |
| 1787817940 | 23.89° C | 49% | 1024.4 hPa | 0 mm | 0 m/s | - | - |
| 1787817880 | 23.89° C | 51% | 1024.7 hPa | 0 mm | 0 m/s | - | - |
| 1787817820 | 23.33° C | 51% | 1027.7 hPa | 0 mm | 0 m/s | - | - |
| 1787817760 | 23.33° C | 50% | 1030.1 hPa | 0 mm | 0 m/s | - | - |
| 1787817699 | 23.33° C | 53% | 1024.7 hPa | 0 mm | 0 m/s | - | - |
| 1787817639 | 22.78° C | 51% | 1024.7 hPa | 0 mm | 0 m/s | - | - |
| 1787817579 | 23.33° C | 50% | 1024.7 hPa | 0 mm | 0 m/s | - | - |
| 1787817519 | 22.78° C | 52% | 1024.7 hPa | 0 mm | 0 m/s | - | - |
| 1787817460 | 22.78° C | 52% | 1024.5 hPa | 0 mm | 0 m/s | - | - |
| 1787817399 | 22.78° C | 51% | 1024.7 hPa | 0 mm | 0 m/s | - | - |
| 1787817339 | 23.33° C | 53% | 1024.7 hPa | 0 mm | 0 m/s | - | - |
| 1787817279 | 22.78° C | 53% | 1024.7 hPa | 0 mm | 0 m/s | - | - |
| 1787817219 | 22.78° C | 53% | 1024.7 hPa | 0 mm | 0 m/s | - | - |
| 1787817160 | 22.22° C | 54% | 1024.7 hPa | 0 mm | 0 m/s | - | - |
| 1787817099 | 22.22° C | 55% | 1024.7 hPa | 0 mm | 0 m/s | - | - |
| 1787817039 | 21.67° C | 54% | 1026.4 hPa | 0 mm | 0 m/s | - | - |
| 1787816979 | 21.67° C | 55% | 1024.7 hPa | 0 mm | 0 m/s | - | - |
| 1787816919 | 21.67° C | 53% | 1024.6 hPa | 0 mm | 0 m/s | - | - |
* Rain latest hour (hover to see other rain measurements)
** Current wind speed in m/s (hover to see current wind gust speed)